• In Spain
  • List of Countries
  • For 7 days
  • Water Temperature
  • Satellite Maps
  • Weather Map
  • Weather Widgets
  • user-avatar
    Login

    Hourly Weather Sintra

    Today, 18 January, Thursday

    Time Temperature Precipitation Wind Pressure Humidity
    00:00 +6°C° 0 mm 7 mps 756 mmHg 88%
    01:00 +6°C° 0 mm 7 mps 755 mmHg 87%
    02:00 +5°C° 0 mm 7 mps 755 mmHg 86%
    03:00 +5°C° 0 mm 6 mps 755 mmHg 84%
    04:00 +5°C° 0 mm 6 mps 755 mmHg 83%
    05:00 +5°C° 0 mm 6 mps 755 mmHg 81%
    06:00 +5°C° 0 mm 6 mps 755 mmHg 78%
    07:00 +7°C° 0 mm 6 mps 755 mmHg 74%
    08:00 +7°C° 0 mm 6 mps 755 mmHg 71%
    09:00 +9°C° 0 mm 6 mps 755 mmHg 64%
    10:00 +11°C° 0 mm 6 mps 755 mmHg 57%
    11:00 +14°C° 0 mm 6 mps 755 mmHg 50%
    12:00 +15°C° 0 mm 6 mps 755 mmHg 50%
    13:00 +15°C° 0 mm 7 mps 754 mmHg 50%
    14:00 +16°C° 0 mm 7 mps 754 mmHg 50%
    15:00 +14°C° 0 mm 7 mps 754 mmHg 58%
    16:00 +12°C° 0 mm 8 mps 754 mmHg 66%
    17:00 +10°C° 0 mm 8 mps 754 mmHg 74%
    18:00 +9°C° 0 mm 8 mps 754 mmHg 78%
    19:00 +9°C° 0 mm 8 mps 754 mmHg 81%
    20:00 +7°C° 0 mm 8 mps 754 mmHg 84%
    21:00 +7°C° 0 mm 8 mps 754 mmHg 85%
    22:00 +9°C° 0 mm 8 mps 754 mmHg 86%
    23:00 +9°C° 0 mm 8 mps 754 mmHg 86%

    Tomorrow, 19 January, Friday

    Time Temperature Precipitation Wind Pressure Humidity
    00:00 +9°C° 0 mm 8 mps 754 mmHg 87%
    01:00 +9°C° 0 mm 8 mps 754 mmHg 88%
    02:00 +9°C° 0 mm 8 mps 754 mmHg 89%
    03:00 +9°C° 0 mm 8 mps 754 mmHg 89%
    04:00 +7°C° 0 mm 8 mps 754 mmHg 89%
    05:00 +7°C° 0 mm 8 mps 754 mmHg 89%
    06:00 +9°C° 0 mm 8 mps 754 mmHg 87%
    07:00 +9°C° 0 mm 8 mps 755 mmHg 85%
    08:00 +9°C° 0 mm 8 mps 755 mmHg 83%
    09:00 +11°C° 0 mm 8 mps 755 mmHg 76%
    10:00 +13°C° 0 mm 8 mps 756 mmHg 68%
    11:00 +16°C° 0 mm 8 mps 756 mmHg 61%
    12:00 +16°C° 0 mm 8 mps 756 mmHg 60%
    13:00 +17°C° 0 mm 8 mps 756 mmHg 59%
    14:00 +17°C° 0 mm 8 mps 755 mmHg 57%
    15:00 +15°C° 0 mm 7 mps 756 mmHg 65%
    16:00 +12°C° 0 mm 7 mps 756 mmHg 73%
    17:00 +11°C° 0 mm 7 mps 756 mmHg 81%
    18:00 +10°C° 0 mm 7 mps 757 mmHg 83%
    19:00 +9°C° 0 mm 7 mps 758 mmHg 84%
    20:00 +9°C° 0 mm 7 mps 758 mmHg 86%
    21:00 +8°C° 0 mm 6 mps 758 mmHg 87%
    22:00 +8°C° 0 mm 6 mps 758 mmHg 88%
    23:00 +7°C° 0 mm 5 mps 758 mmHg 89%

    Day after tomorrow, 20 January, Saturday

    Time Temperature Precipitation Wind Pressure Humidity
    00:00 +7°C° 0 mm 5 mps 758 mmHg 89%
    01:00 +7°C° 0 mm 5 mps 759 mmHg 90%
    02:00 +7°C° 0 mm 5 mps 759 mmHg 90%
    03:00 +7°C° 0 mm 5 mps 759 mmHg 90%
    04:00 +6°C° 0 mm 5 mps 759 mmHg 90%
    05:00 +6°C° 0 mm 5 mps 759 mmHg 90%
    06:00 +7°C° 0 mm 5 mps 759 mmHg 89%
    07:00 +7°C° 0 mm 5 mps 759 mmHg 87%
    08:00 +7°C° 0 mm 5 mps 760 mmHg 85%
    09:00 +10°C° 0 mm 4 mps 760 mmHg 75%
    10:00 +13°C° 0 mm 4 mps 760 mmHg 65%
    11:00 +15°C° 0 mm 4 mps 761 mmHg 54%
    12:00 +15°C° 0 mm 4 mps 760 mmHg 55%
    13:00 +16°C° 0 mm 5 mps 760 mmHg 56%
    14:00 +17°C° 0 mm 5 mps 759 mmHg 56%
    15:00 +15°C° 0 mm 5 mps 760 mmHg 65%
    16:00 +14°C° 0 mm 4 mps 760 mmHg 74%
    17:00 +12°C° 0 mm 4 mps 760 mmHg 82%
    18:00 +11°C° 0 mm 4 mps 760 mmHg 85%
    19:00 +11°C° 0 mm 4 mps 761 mmHg 88%
    20:00 +10°C° 0 mm 4 mps 761 mmHg 91%
    21:00 +10°C° 0 mm 4 mps 761 mmHg 92%
    22:00 +10°C° 0 mm 4 mps 761 mmHg 93%
    23:00 +10°C° 0 mm 4 mps 761 mmHg 94%

    21 January, Sunday

    Time Temperature Precipitation Wind Pressure Humidity
    00:00 +10°C° 0 mm 4 mps 761 mmHg 95%
    01:00 +10°C° 0 mm 4 mps 761 mmHg 95%
    02:00 +10°C° 0 mm 4 mps 761 mmHg 96%
    03:00 +10°C° 0 mm 4 mps 761 mmHg 96%
    04:00 +10°C° 0 mm 4 mps 761 mmHg 96%
    05:00 +10°C° 0 mm 4 mps 761 mmHg 97%
    06:00 +11°C° 0 mm 4 mps 761 mmHg 95%
    07:00 +11°C° 0 mm 3 mps 761 mmHg 94%
    08:00 +11°C° 0 mm 3 mps 761 mmHg 93%
    09:00 +13°C° 0 mm 3 mps 762 mmHg 85%
    10:00 +14°C° 0 mm 3 mps 762 mmHg 78%
    11:00 +17°C° 0 mm 3 mps 762 mmHg 70%
    12:00 +18°C° 0 mm 3 mps 761 mmHg 66%
    13:00 +18°C° 0 mm 3 mps 761 mmHg 63%
    14:00 +19°C° 0 mm 3 mps 760 mmHg 59%
    15:00 +17°C° 0 mm 3 mps 760 mmHg 67%
    16:00 +15°C° 0 mm 4 mps 760 mmHg 74%
    17:00 +13°C° 0 mm 4 mps 760 mmHg 81%
    18:00 +12°C° 0 mm 4 mps 761 mmHg 84%
    19:00 +11°C° 0 mm 3 mps 761 mmHg 87%
    20:00 +11°C° 0 mm 3 mps 761 mmHg 90%
    21:00 +10°C° 0 mm 3 mps 761 mmHg 91%
    22:00 +10°C° 0 mm 3 mps 761 mmHg 92%
    23:00 +10°C° 0 mm 3 mps 761 mmHg 92%

    22 January, Monday

    Time Temperature Precipitation Wind Pressure Humidity
    00:00 +9°C° 0 mm 3 mps 761 mmHg 92%
    01:00 +9°C° 0 mm 3 mps 760 mmHg 92%
    02:00 +9°C° 0 mm 3 mps 760 mmHg 92%
    03:00 +8°C° 0 mm 3 mps 760 mmHg 92%
    04:00 +8°C° 0 mm 3 mps 760 mmHg 92%
    05:00 +8°C° 0 mm 3 mps 760 mmHg 92%
    06:00 +8°C° 0 mm 3 mps 760 mmHg 90%
    07:00 +9°C° 0 mm 3 mps 760 mmHg 88%
    08:00 +9°C° 0 mm 3 mps 761 mmHg 86%
    09:00 +13°C° 0 mm 2 mps 761 mmHg 77%
    10:00 +15°C° 0 mm 2 mps 761 mmHg 69%
    11:00 +17°C° 0 mm 2 mps 761 mmHg 61%
    12:00 +18°C° 0 mm 2 mps 760 mmHg 58%
    13:00 +19°C° 0 mm 2 mps 760 mmHg 54%
    14:00 +19°C° 0 mm 2 mps 759 mmHg 51%
    15:00 +18°C° 0 mm 2 mps 759 mmHg 58%
    16:00 +16°C° 0 mm 3 mps 759 mmHg 65%
    17:00 +13°C° 0 mm 3 mps 759 mmHg 71%
    18:00 +12°C° 0 mm 4 mps 760 mmHg 75%
    19:00 +12°C° 0 mm 4 mps 760 mmHg 78%
    20:00 +11°C° 0 mm 4 mps 760 mmHg 81%
    21:00 +10°C° 0 mm 4 mps 760 mmHg 82%
    22:00 +10°C° 0 mm 3 mps 760 mmHg 84%
    23:00 +9°C° 0 mm 3 mps 760 mmHg 85%

    23 January, Tuesday

    Time Temperature Precipitation Wind Pressure Humidity
    00:00 +9°C° 0 mm 3 mps 760 mmHg 85%
    01:00 +9°C° 0 mm 3 mps 759 mmHg 85%
    02:00 +8°C° 0 mm 3 mps 759 mmHg 85%
    03:00 +8°C° 0 mm 3 mps 759 mmHg 85%
    04:00 +8°C° 0 mm 3 mps 759 mmHg 86%
    05:00 +8°C° 0 mm 3 mps 759 mmHg 86%
    06:00 +8°C° 0 mm 3 mps 759 mmHg 83%
    07:00 +9°C° 0 mm 3 mps 759 mmHg 81%
    08:00 +8°C° 0 mm 4 mps 759 mmHg 78%
    09:00 +11°C° 0 mm 4 mps 759 mmHg 70%
    10:00 +14°C° 0 mm 3 mps 759 mmHg 62%
    11:00 +17°C° 0 mm 3 mps 759 mmHg 54%
    12:00 +18°C° 0 mm 3 mps 758 mmHg 52%
    13:00 +19°C° 0 mm 2 mps 758 mmHg 50%
    14:00 +20°C° 0 mm 2 mps 757 mmHg 48%
    15:00 +18°C° 0 mm 2 mps 757 mmHg 55%
    16:00 +16°C° 0 mm 2 mps 757 mmHg 62%
    17:00 +14°C° 0 mm 1 mps 757 mmHg 69%
    18:00 +13°C° 0 mm 2 mps 757 mmHg 72%
    19:00 +13°C° 0 mm 2 mps 757 mmHg 75%
    20:00 +12°C° 0 mm 2 mps 758 mmHg 79%
    21:00 +12°C° 0 mm 2 mps 757 mmHg 80%
    22:00 +10°C° 0 mm 2 mps 757 mmHg 81%
    23:00 +10°C° 0 mm 2 mps 757 mmHg 82%
    Show more